STARLINK-1126 (44951 NORAD) Tracking and Keplerian Element Data

This shows tracking and keplerian element data for the satellite.

Feedback or suggestion? Click here.




ElementValue
Catalog44951
NameSTARLINK-1126
Epoch Orbit1399
Epoch Day88.25001157
Epoch Year2020
RAAN359.2622
Inclination52.998
Eccentricity0.0001449
Argument of Perigee58.7831
Mean Anonmoly116.6065
Mean Motion15.13843071
Decay Rate-0.00058271
L11 44951U 20001AP 20088.25001157 -.00058271 00000-0 -31955-2 0 9995
L22 44951 52.9980 359.2622 0001449 58.7831 116.6065 15.13843071 13997

Live tracking and technical data element details for STARLINK-1126 (NORAD 44951). STARLINK-1126 can be tracked NOW for your location showing map with azimuth and elevation plus other details from your city location.

Track the satellite on the map from your city or location and see movement details for azimuth, elevation, latitude, longitude, range, height, and movement on the map or in text.







IsCatalogInMostPopularTable: catalog: 44951, numindb: 19
Update: records affected: 1



GetName: 44951 STARLINK-1126

Hit Count: updated at: Sat, 28 Mar 2020 20:14:26 GMT